Location: Ariel
(45.9570°N, 122.5700°W)
Time: 02:59:55
(UTC-07:00)

Altair - Pass Details

Date: 27 July 2019
Orbit: 1501 x 1683 km, 47.2° (Epoch: 19 August)

Event Time Altitude Azimuth Distance (km) Brightness Sun altitude
Rises 17:02:40 0° 291° (WNW) 4,639 10.7 36.7°
Reaches altitude 10° 17:05:44 10° 288° (WNW) 3,661 10.5 36.2°
Maximum altitude 17:14:37 56° 213° (SSW) 1,772 8.9 34.7°
Drops below altitude 10° 17:23:43 10° 139° (SE) 3,745 9.3 33.1°
Sets 17:26:54 0° 135° (SE) 4,751 9.8 32.6°
